Location: Risskov
(56.1972°N, 10.2480°E)
Time: 23:37:26
(UTC+00:00)

Meteor 2-3 Rocket - Pass Details

Date: 05 July 2020
Orbit: 843 x 884 km, 81.2° (Epoch: 14 August)

Event Time Altitude Azimuth Distance (km) Brightness Sun altitude
Exits shadow 23:21:02 15° 186° (S) 2,178 5.2 -11.1°
Maximum altitude 23:25:51 79° 102° (ESE) 886 3.8 -11.1°
Drops below altitude 10° 23:31:36 10° 16° (NNE) 2,531 7.6 -11.1°
Sets 23:34:04 0° 16° (NNE) 3,479 8.7 -11.1°
